Change the Weather History Date:

Sunday, December 2, 2012

  Actual Average (KOMH) Record (KOMH)
Temperature  
Mean Temperature 44 °F -  
Max Temperature 60 °F 50 °F 68 °F (1980)
Min Temperature 28 °F 30 °F 15 °F (1960)
Degree Days  
Heating Degree Days 21    
Moisture  
Dew Point 40 °F    
Average Humidity 84    
Maximum Humidity 100    
Minimum Humidity 55    
Precipitation  
Precipitation 0.00 in - - ()
Sea Level Pressure  
Sea Level Pressure 30.27 in    
Wind  
Wind Speed 1 mph (SSW)    
Max Wind Speed 9 mph    
Max Gust Speed -    
Visibility 6 miles    
Events Fog , Rain    
Averages and records for this station are not official NWS values.
T = Trace of Precipitation, MM = Missing Value Source: NWS Daily Summary

Daily Weather History Graph

Daily Weather History Graph

Search for Another Location

Airport or City:

Trip Planner

Search our weather history database for the weather conditions in past years. The results will help you decide how hot, cold, wet, or windy it might be!

Date:

Astronomy

Dec. 02, 2012 Rise Set
Actual Time 7:11 AM EST 4:50 PM EST
Civil Twilight 6:42 AM EST 5:19 PM EST
Nautical Twilight 6:09 AM EST 5:52 PM EST
Astronomical Twilight 5:37 AM EST 6:24 PM EST
Moon 8:35 PM EST (12/2) 10:01 AM EST (12/2)
Length of Visible Light 10h 37m
Length of Day
9h 39m
Waning Gibbous, 86% of the Moon is Illuminated
Dec 2
Waning Gibbous
Dec 6
Last Quarter
Dec 13
New
Dec 20
First Quarter
Dec 28
Full

Hourly Weather History & Observations

Time (EST) Temp. Windchill Dew Point Humidity Pressure Visibility Wind Dir Wind Speed Gust Speed Precip Events Conditions
12:15 AM 30.2 °F - 30.2 °F 100% 30.41 in 3.0 mi Calm Calm - N/A   Clear
12:35 AM 30.2 °F - 30.2 °F 100% 30.40 in 2.5 mi Calm Calm - N/A   Clear
12:55 AM 30.2 °F - 30.2 °F 100% 30.40 in 2.0 mi Calm Calm - N/A   Clear
1:15 AM 30.2 °F - 30.2 °F 100% 30.40 in 2.0 mi Calm Calm - N/A   Clear
1:35 AM 30.2 °F - 30.2 °F 100% 30.39 in 2.0 mi Calm Calm - N/A   Clear
1:55 AM 30.2 °F - 30.2 °F 100% 30.39 in 3.0 mi Calm Calm - N/A   Clear
2:15 AM 30.2 °F - 30.2 °F 100% 30.39 in 2.5 mi Calm Calm - N/A   Clear
2:55 AM 30.2 °F - 30.2 °F 100% 30.38 in 2.5 mi Calm Calm - N/A   Clear
3:15 AM 28.4 °F - 28.4 °F 100% 30.38 in 2.5 mi Calm Calm - N/A   Clear
3:35 AM 30.2 °F - 30.2 °F 100% 30.38 in 2.5 mi Calm Calm - N/A   Mostly Cloudy
3:55 AM 28.4 °F - 28.4 °F 100% 30.37 in 2.5 mi Calm Calm - N/A   Mostly Cloudy
4:15 AM 28.4 °F - 28.4 °F 100% 30.36 in 1.2 mi Calm Calm - N/A   Overcast
4:35 AM 28.4 °F - 28.4 °F 100% 30.36 in 0.2 mi Calm Calm - N/A Fog Light Freezing Fog
4:55 AM 28.4 °F - 28.4 °F 100% 30.36 in 2.5 mi Calm Calm - N/A   Scattered Clouds
5:15 AM 28.4 °F - 28.4 °F 100% 30.35 in 1.8 mi Calm Calm - N/A   Mostly Cloudy
5:35 AM 28.4 °F - 28.4 °F 100% 30.35 in 2.5 mi Calm Calm - N/A   Scattered Clouds
5:55 AM 28.4 °F - 28.4 °F 100% 30.36 in 3.0 mi Calm Calm - N/A   Clear
6:15 AM 28.4 °F - 28.4 °F 100% 30.36 in 2.5 mi Calm Calm - N/A   Clear
6:35 AM 28.4 °F - 28.4 °F 100% 30.36 in 2.5 mi Calm Calm - N/A   Clear
6:55 AM 28.4 °F - 28.4 °F 100% 30.36 in 3.0 mi Calm Calm - N/A   Mist
7:15 AM 28.4 °F - 28.4 °F 100% 30.36 in 4.0 mi Calm Calm - N/A   Clear
7:35 AM 30.2 °F - 30.2 °F 100% 30.37 in 2.0 mi Calm Calm - N/A   Clear
7:55 AM 30.2 °F - 30.2 °F 100% 30.36 in 2.0 mi Calm Calm - N/A   Mostly Cloudy
8:15 AM 32.0 °F - 32.0 °F 100% 30.36 in 2.0 mi Calm Calm - N/A   Overcast
8:35 AM 32.0 °F - 32.0 °F 100% 30.36 in 1.8 mi Calm Calm - N/A   Mostly Cloudy
8:55 AM 33.8 °F - 33.8 °F 100% 30.35 in 1.5 mi Calm Calm - N/A   Mist
9:15 AM 35.6 °F - 35.6 °F 100% 30.34 in 2.0 mi Calm Calm - N/A   Clear
9:35 AM 35.6 °F - 35.6 °F 100% 30.35 in 2.5 mi Calm Calm - N/A   Clear
9:55 AM 37.4 °F - 37.4 °F 100% 30.34 in 2.5 mi Calm Calm - N/A   Mist
10:15 AM 39.2 °F - 39.2 °F 100% 30.34 in 2.0 mi Calm Calm - N/A   Clear
10:35 AM 41.0 °F - 39.2 °F 93% 30.33 in 2.5 mi Calm Calm - N/A   Clear
10:55 AM 42.8 °F - 41.0 °F 93% 30.31 in 3.0 mi Calm Calm - N/A   Clear
11:15 AM 46.4 °F 44.3 °F 42.8 °F 87% 30.30 in 4.0 mi South 4.6 mph - N/A   Clear
11:35 AM 46.4 °F 44.3 °F 42.8 °F 87% 30.29 in 4.0 mi SSW 4.6 mph - N/A   Clear
11:55 AM 50.0 °F - 42.8 °F 76% 30.27 in 5.0 mi SSW 5.8 mph - N/A   Haze
12:15 PM 51.8 °F - 42.8 °F 71% 30.25 in 5.0 mi South 5.8 mph - N/A   Haze
12:35 PM 53.6 °F - 42.8 °F 67% 30.23 in 7.0 mi SSW 6.9 mph - N/A   Clear
12:55 PM 55.4 °F - 44.6 °F 67% 30.22 in 7.0 mi SSW 3.5 mph - N/A   Clear
1:15 PM 57.2 °F - 44.6 °F 63% 30.20 in 7.0 mi South 4.6 mph - N/A   Clear
1:35 PM 60.8 °F - 44.6 °F 55% 30.19 in 10.0 mi SSW 6.9 mph - N/A   Clear
1:55 PM 60.8 °F - 44.6 °F 55% 30.17 in 10.0 mi South 6.9 mph - N/A   Clear
2:15 PM 60.8 °F - 44.6 °F 55% 30.17 in 10.0 mi South 8.1 mph - N/A   Clear
2:35 PM 60.8 °F - 46.4 °F 59% 30.16 in 10.0 mi SSW 9.2 mph - N/A   Clear
2:55 PM 60.8 °F - 46.4 °F 59% 30.17 in 10.0 mi South 9.2 mph - N/A   Clear
3:15 PM 60.8 °F - 46.4 °F 59% 30.16 in 10.0 mi SSW 6.9 mph - N/A   Clear
3:35 PM 60.8 °F - 46.4 °F 59% 30.16 in 10.0 mi SW 5.8 mph - N/A   Clear
4:15 PM 59.0 °F - 46.4 °F 63% 30.17 in 10.0 mi Calm Calm - N/A   Clear
4:35 PM 55.4 °F - 46.4 °F 72% 30.16 in 10.0 mi Calm Calm - N/A   Scattered Clouds
4:55 PM 55.4 °F - 46.4 °F 72% 30.16 in 10.0 mi Calm Calm - N/A   Mostly Cloudy
5:15 PM 55.4 °F - 46.4 °F 72% 30.16 in 10.0 mi Calm Calm - N/A   Scattered Clouds
5:35 PM 53.6 °F - 46.4 °F 77% 30.16 in 10.0 mi Calm Calm - N/A   Mostly Cloudy
5:55 PM 53.6 °F - 46.4 °F 77% 30.16 in 10.0 mi Calm Calm - N/A   Scattered Clouds
6:15 PM 55.4 °F - 48.2 °F 77% 30.16 in 10.0 mi Calm Calm - N/A   Mostly Cloudy
6:35 PM 55.4 °F - 48.2 °F 77% 30.16 in 10.0 mi South 3.5 mph - N/A Rain Light Rain
6:55 PM 60.8 °F - 48.2 °F 63% 30.16 in 10.0 mi SSW 5.8 mph - N/A   Mostly Cloudy
7:15 PM 59.0 °F - 48.2 °F 67% 30.17 in 10.0 mi Calm Calm - N/A   Mostly Cloudy
7:35 PM 60.8 °F - 48.2 °F 63% 30.17 in 10.0 mi SSW 5.8 mph - N/A   Overcast
7:55 PM 60.8 °F - 48.2 °F 63% 30.17 in 10.0 mi South 4.6 mph - N/A   Overcast
8:15 PM 60.8 °F - 48.2 °F 63% 30.16 in 10.0 mi South 4.6 mph - N/A   Mostly Cloudy
8:35 PM 59.0 °F - 50.0 °F 72% 30.17 in 10.0 mi SSW 4.6 mph - N/A   Scattered Clouds
8:55 PM 59.0 °F - 50.0 °F 72% 30.17 in 10.0 mi SSW 4.6 mph - N/A   Scattered Clouds
9:15 PM 57.2 °F - 50.0 °F 77% 30.17 in 10.0 mi South 3.5 mph - N/A   Scattered Clouds
9:35 PM 57.2 °F - 50.0 °F 77% 30.16 in 10.0 mi Calm Calm - N/A   Clear
9:55 PM 55.4 °F - 50.0 °F 82% 30.17 in 10.0 mi South 3.5 mph - N/A   Clear
10:15 PM 55.4 °F - 50.0 °F 82% 30.17 in 10.0 mi SSW 4.6 mph - N/A   Scattered Clouds
10:35 PM 57.2 °F - 51.8 °F 82% 30.17 in 10.0 mi SSW 4.6 mph - N/A   Scattered Clouds
10:55 PM 57.2 °F - 51.8 °F 82% 30.17 in 10.0 mi SSW 6.9 mph - N/A   Scattered Clouds
11:15 PM 55.4 °F - 50.0 °F 82% 30.17 in 10.0 mi SSW 3.5 mph - N/A   Clear
11:35 PM 55.4 °F - 50.0 °F 82% 30.17 in 10.0 mi Calm Calm - N/A   Scattered Clouds
11:55 PM 55.4 °F - 50.0 °F 82% 30.17 in 10.0 mi Calm Calm - N/A   Scattered Clouds